Location: Tauranga
(37.6860°S, 176.1670°E)
Time: 18:15:50
(UTC+13:00)

Meteor 2-6 Rocket - Pass Details

Date: 24 January 2019
Orbit: 805 x 916 km, 81.3° (Epoch: 21 February)

Event Time Altitude Azimuth Distance (km) Brightness Sun altitude
Exits shadow 23:33:41 54° 117° (ESE) 984 4.4 -27.1°
Drops below altitude 10° 23:38:21 10° 163° (SSE) 2,422 7.1 -27.6°
Sets 23:40:48 0° 166° (SSE) 3,367 8.0 -27.8°
